[[{"header":{"parameterUnit":"m.s-1","parameterCategory":1,"la1":30.2992,"la2":30.254,"lo1":-89.0895,"lo2":-89.0443,"dy":0.0025,"dx":0.0025,"nx":19,"ny":19,"refTime":"2026-03-17T21:00:00:Z","depth":0,"parameterNumber":2,"parameterNumberName":"U-component_of_WINDS"},"data":[0,0,0,-0.8456,-0.8457,-0.8484,-0.8484,-0.8545,-0.8545,0,0,0,0,0,0,0,0,0,0,0,-0.8462,-0.8463,-0.8456,-0.8457,-0.8484,-0.8484,-0.8544,-0.8545,0,0,0,0,0,0,0,0,0,0,0,-0.8462,-0.8463,-0.8464,-0.8457,-0.8484,-0.8484,-0.8544,-0.8515,0,0,0,0,0,0,0,0,0,0,-0.8485,-0.8503,-0.8462,-0.8464,-0.8457,-0.8484,-0.8484,-0.8513,-0.8517,-0.8543,0,-0.8568,0,-0.8558,-0.8551,-0.8551,0,0,0,-0.8447,-0.85,-0.8495,-0.8464,-0.8458,-0.8484,-0.8469,-0.8515,-0.8519,-0.8548,-0.8569,-0.857,-0.8559,-0.8551,-0.8552,-0.8733,-0.8734,0,0,-0.8446,-0.8475,-0.8492,-0.8498,-0.8493,-0.8468,-0.847,-0.8517,-0.8542,-0.8569,-0.8571,-0.856,-0.8552,-0.8553,-0.8731,-0.8733,0,0,0,-0.8448,-0.8474,-0.8467,-0.8496,-0.8499,-0.8469,-0.8471,-0.854,-0.8535,-0.8572,-0.856,-0.8552,-0.8553,-0.873,-0.8732,-0.8826,0,0,0,-0.8447,-0.8475,-0.8467,-0.8485,-0.8499,-0.8519,-0.8494,-0.8532,-0.8536,-0.856,-0.8552,-0.8554,-0.8728,-0.8731,-0.882,-0.8866,0,0,0,-0.8456,-0.8476,-0.8485,-0.8486,-0.8499,-0.8518,-0.8515,-0.8532,-0.853,-0.8551,-0.8554,-0.8727,-0.873,-0.8815,-0.8857,-0.8924,0,0,0,-0.8474,-0.8567,-0.8487,-0.8586,-0.8499,-0.8575,-0.8515,-0.857,-0.8599,-0.8553,-0.8729,-0.8732,-0.8813,-0.8852,-0.8919,-0.8987,-0.9017,0,0,-0.8607,-0.8584,-0.864,-0.8569,-0.8667,-0.8568,-0.868,-0.868,-0.8656,-0.8709,-0.8713,-0.8822,-0.8857,-0.8923,-0.9173,-0.9197,0,0,0,-0.8693,-0.8734,-0.8754,-0.8782,-0.8784,-0.879,-0.8769,-0.8769,-0.8813,-0.8688,-0.8861,-0.8881,-0.8919,-0.8951,-0.8971,-0.9003,-0.8747,-0.8746,-0.8746,-0.8925,-0.8888,-0.8981,-0.8949,-0.8978,-0.8956,-0.8977,-0.8974,-0.8929,-0.8971,-0.8987,-0.9143,-0.918,-0.9196,-0.9229,-0.9018,-0.9018,-0.9018,-0.9019,-0.9119,-0.9173,-0.9112,-0.9179,-0.9142,-0.9199,-0.9183,-0.9149,-0.9199,-0.9127,-0.9158,-0.9085,-0.9223,-0.9251,-0.9025,-0.9024,-0.9023,-0.9023,-0.9022,-0.9269,-0.9289,-0.9287,-0.9326,-0.9361,-0.9325,-0.9376,-0.934,-0.9306,-0.9337,-0.9352,-0.935,-0.9347,-0.9346,-0.9347,-0.9347,-0.9348,-0.9348,-0.9348,-0.9426,-0.9421,-0.9467,-0.9478,-0.9493,-0.9508,-0.9488,-0.9503,-0.951,-0.948,-0.948,-0.9433,-0.9242,-0.9197,-0.9357,-0.9355,-0.9354,-0.9353,-0.9353,-0.9641,-0.9587,-0.9659,-0.9674,-0.9685,-0.9724,-0.9676,-0.9709,-0.9716,-0.9743,-0.969,-0.9553,-0.9527,-0.9511,-0.9473,-0.9695,-0.9695,-0.9695,-0.9695,-0.977,-0.9752,-0.9819,-0.9846,-0.9868,-0.9833,-0.9919,-0.9906,-0.9884,-0.9887,-0.9849,-0.9795,-0.978,-0.9763,-0.9741,-0.9705,-0.9981,-0.9981,-0.9982,-0.9901,-0.9884,-0.9964,-0.994,-0.9946,-0.9954,-1.0035,-1.0071,-1.0035,-0.9992,-0.9889,-0.9877,-0.979,-0.9762,-0.972,-0.9686,-0.962,0,0]},{"header":{"parameterUnit":"m.s-1","parameterCategory":1,"la1":30.2992,"la2":30.254,"lo1":-89.0895,"lo2":-89.0443,"dy":0.0025,"dx":0.0025,"nx":19,"ny":19,"refTime":"2026-03-17T21:00:00:Z","depth":0,"parameterNumber":3,"parameterNumberName":"V-component_of_WINDS"},"data":[0,0,0,1.2276,1.2274,1.2192,1.2191,1.2083,1.2082,0,0,0,0,0,0,0,0,0,0,0,1.23,1.23,1.2276,1.2274,1.2192,1.2191,1.2083,1.2082,0,0,0,0,0,0,0,0,0,0,0,1.2301,1.23,1.2299,1.2274,1.2192,1.2191,1.2083,1.2146,0,0,0,0,0,0,0,0,0,0,1.2226,1.225,1.23,1.2299,1.2273,1.2192,1.2191,1.2149,1.2142,1.212,0,1.2101,0,1.209,1.2075,1.2074,0,0,0,1.2273,1.2255,1.2233,1.2299,1.2272,1.2192,1.2229,1.2145,1.2137,1.211,1.21,1.2096,1.2088,1.2074,1.2073,1.1951,1.195,0,0,1.2278,1.2285,1.2239,1.2228,1.2243,1.2231,1.2226,1.214,1.2128,1.2099,1.2093,1.2087,1.2073,1.2072,1.1951,1.1951,0,0,0,1.2291,1.2288,1.2268,1.2233,1.2218,1.2229,1.2223,1.2132,1.2125,1.2092,1.2085,1.2073,1.2071,1.1952,1.1951,1.1931,0,0,0,1.2294,1.2296,1.227,1.2274,1.222,1.2175,1.2217,1.2131,1.2121,1.2086,1.2072,1.207,1.1952,1.1951,1.1933,1.1919,0,0,0,1.2306,1.2297,1.2286,1.2274,1.224,1.2176,1.2164,1.2129,1.2117,1.2074,1.207,1.1953,1.1952,1.1934,1.1922,1.1888,0,0,0,1.2319,1.2268,1.2286,1.2226,1.224,1.2166,1.2164,1.2108,1.2069,1.2072,1.1952,1.1951,1.1935,1.1923,1.189,1.186,1.1849,0,0,1.2259,1.2261,1.2226,1.2239,1.2163,1.2177,1.2098,1.2054,1.2043,1.1982,1.1978,1.1932,1.1922,1.1888,1.1787,1.1778,0,0,0,1.2208,1.2183,1.2161,1.2125,1.2093,1.2063,1.2031,1.2015,1.1964,1.2014,1.1912,1.1905,1.1885,1.187,1.1863,1.1844,1.1945,1.1945,1.1945,1.213,1.2121,1.2061,1.2041,1.2007,1.1976,1.1946,1.1919,1.1918,1.1894,1.1875,1.1814,1.1797,1.1792,1.1773,1.186,1.186,1.186,1.186,1.2039,1.2,1.2002,1.1945,1.1934,1.1885,1.1854,1.1855,1.1806,1.1828,1.181,1.1832,1.1782,1.1765,1.1858,1.1858,1.1859,1.1859,1.1859,1.1984,1.1964,1.1947,1.1895,1.1856,1.1838,1.1792,1.1785,1.1777,1.1759,1.1737,1.1737,1.1735,1.175,1.175,1.175,1.1749,1.1749,1.1749,1.1933,1.1916,1.1879,1.1841,1.1818,1.1785,1.1756,1.1731,1.1702,1.17,1.17,1.17,1.1781,1.18,1.1746,1.1746,1.1747,1.1747,1.1747,1.1839,1.186,1.1803,1.178,1.1735,1.1696,1.1689,1.1641,1.162,1.1597,1.1602,1.1664,1.1665,1.1671,1.1686,1.1606,1.1606,1.1606,1.1606,1.1792,1.1793,1.1733,1.1696,1.166,1.1647,1.1582,1.1558,1.1536,1.1523,1.1534,1.1555,1.1562,1.1558,1.1567,1.1581,1.1475,1.1475,1.1475,1.1733,1.173,1.1676,1.1658,1.1623,1.1593,1.153,1.1486,1.1466,1.147,1.1511,1.1517,1.1551,1.1562,1.1563,1.1577,1.1602,0,0]}]]